EW2785 Weather Reports


Display with metric or nautical units.
time (UTC)temp
F
wind
direction
speed
MPH
gust
MPH
rain 1hr
in
rain 24hr
in
rain mn
in
humidity
%
barometer
mb
20260508213040 53 232 4.0 11.0 0.00 0.00 0.00 37 1009.4
20260508211537 54 258 0.0 3.0 0.00 0.00 0.00 40 1009.2
20260508210038 53 193 0.0 4.0 0.00 0.00 0.00 39 1009.3
20260508204538 53 295 3.0 10.0 0.00 0.00 0.00 38 1009.2
20260508203037 54 263 1.0 13.0 0.00 0.00 0.00 39 1009.1
20260508201536 54 216 2.0 9.0 0.00 0.00 0.00 38 1009.0
20260508200037 54 169 0.0 12.0 0.00 0.00 0.00 36 1009.0
20260508194534 54 290 0.0 6.0 0.00 0.00 0.00 42 1009.2
20260508193035 54 239 0.0 6.0 0.00 0.00 0.00 40 1009.1
20260508191543 53 207 0.0 7.0 0.00 0.00 0.00 40 1009.2
20260508190040 53 273 1.0 8.0 0.00 0.00 0.00 40 1009.2
20260508184536 54 170 0.0 9.0 0.00 0.00 0.00 39 1009.3
20260508183035 55 156 1.0 6.0 0.00 0.00 0.00 42 1009.3
20260508181539 52 207 2.0 8.0 0.00 0.00 0.00 40 1009.5
20260508180028 52 179 1.0 7.0 0.00 0.00 0.00 42 1009.5
20260508174531 52 244 1.0 13.0 0.00 0.00 0.00 40 1009.6
20260508173026 52 159 1.0 6.0 0.00 0.00 0.00 41 1009.6
20260508171527 52 180 1.0 7.0 0.00 0.00 0.00 42 1009.6
20260508170024 51 266 2.0 10.0 0.00 0.00 0.00 42 1009.6
20260508164523 51 184 2.0 8.0 0.00 0.00 0.00 42 1009.7
20260508163022 51 288 0.0 7.0 0.00 0.00 0.00 45 1009.8
20260508161538 51 298 0.0 4.0 0.00 0.00 0.00 43 1009.8
20260508160021 50 155 1.0 6.0 0.00 0.00 0.00 44 1009.9
20260508154522 51 276 2.0 7.0 0.00 0.00 0.00 47 1009.9
20260508153034 51 212 1.0 10.0 0.00 0.00 0.00 49 1010.0
20260508151517 50 294 3.0 9.0 0.00 0.00 0.00 50 1009.8
20260508150016 50 123 4.0 10.0 0.00 0.00 0.00 44 1009.6
20260508144516 49 243 1.0 14.0 0.00 0.00 0.00 47 1009.8
20260508143014 49 284 2.0 12.0 0.00 0.00 0.00 47 1009.9
20260508141512 48 163 6.0 18.0 0.00 0.00 0.00 47 1010.0
20260508140010 48 165 3.0 12.0 0.00 0.00 0.00 47 1009.9
20260508134511 48 153 3.0 10.0 0.00 0.00 0.00 51 1010.0
20260508133005 47 257 3.0 20.0 0.00 0.00 0.00 53 1010.1
20260508131501 46 195 0.0 12.0 0.00 0.00 0.00 56 1010.1
20260508130057 44 180 2.0 7.0 0.00 0.00 0.00 58 1010.2
20260508124553 43 164 2.0 7.0 0.00 0.00 0.00 61 1010.3
20260508123051 42 160 2.0 11.0 0.00 0.00 0.00 65 1010.4
20260508121547 40 195 0.0 4.0 0.00 0.00 0.00 80 1010.4
20260508120041 38 181 0.0 4.0 0.00 0.00 0.00 90 1010.4
20260508114538 37 355 0.0 2.0 0.00 0.00 0.00 91 1010.4
20260508113035 36 355 0.0 1.0 0.00 0.00 0.00 91 1010.3
20260508111539 35 355 0.0 1.0 0.00 0.00 0.00 91 1010.2
20260508110034 34 355 0.0 0.0 0.00 0.00 0.00 91 1010.1
20260508104530 33 355 0.0 0.0 0.00 0.00 0.00 91 1010.0
20260508103040 32 355 0.0 0.0 0.00 0.00 0.00 90 1009.9
20260508101527 32 355 0.0 0.0 0.00 0.00 0.00 91 1009.7
20260508100029 32 355 0.0 0.0 0.00 0.00 0.00 90 1009.5
20260508094523 32 355 0.0 2.0 0.00 0.00 0.00 90 1009.3
20260508093030 32 355 0.0 2.0 0.00 0.00 0.00 90 1009.3
20260508091521 32 355 0.0 2.0 0.00 0.00 0.00 90 1009.3
20260508090022 31 355 0.0 1.0 0.00 0.00 0.00 90 1009.2
20260508084519 31 355 0.0 0.0 0.00 0.00 0.00 89 1009.1
20260508083019 31 355 0.0 2.0 0.00 0.00 0.00 89 1009.0
20260508081519 31 355 0.0 1.0 0.00 0.00 0.00 88 1008.9
20260508080018 31 355 0.0 1.0 0.00 0.00 0.00 88 1008.9
20260508074517 31 355 0.0 1.0 0.00 0.00 0.00 87 1009.0
20260508073015 31 355 0.0 0.0 0.00 0.00 0.00 86 1008.8
20260508071516 31 355 0.0 0.0 0.00 0.00 0.00 86 1008.8
20260508070012 32 355 0.0 1.0 0.00 0.00 0.00 86 1008.9
20260508064511 32 355 0.0 0.0 0.00 0.00 0.00 85 1008.8
20260508063009 32 355 0.0 0.0 0.00 0.00 0.00 85 1008.9
20260508061507 33 355 0.0 0.0 0.00 0.00 0.00 85 1008.9
20260508060006 33 355 0.0 0.0 0.00 0.00 0.00 85 1008.9
20260508054510 34 355 0.0 0.0 0.00 0.00 0.00 85 1008.9
20260508053003 34 355 0.0 1.0 0.00 0.00 0.00 85 1008.9
20260508051501 34 355 0.0 0.0 0.00 0.00 0.00 83 1009.1
20260508050100 34 355 0.0 0.0 0.00 0.00 0.00 83 1009.0
20260508044557 34 355 0.0 0.0 0.00 0.00 0.00 82 1009.2
20260508043100 35 355 0.0 1.0 0.00 0.00 0.00 80 1009.3
20260508041553 35 355 0.0 0.0 0.00 0.00 0.00 79 1009.2
20260508040049 36 355 0.0 1.0 0.00 0.00 0.00 78 1009.2
20260508034551 37 355 0.0 0.0 0.00 0.00 0.00 77 1009.1
20260508033045 37 355 0.0 0.0 0.00 0.00 0.00 75 1009.1
20260508031543 38 355 0.0 0.0 0.00 0.00 0.00 74 1009.0
20260508030043 39 355 0.0 1.0 0.00 0.00 0.00 72 1009.1
20260508024542 40 355 0.0 1.0 0.00 0.00 0.00 71 1009.0
20260508023034 41 355 0.0 1.0 0.00 0.00 0.00 68 1009.0
20260508021530 42 355 0.0 2.0 0.00 0.00 0.00 66 1008.9
20260508020031 44 349 1.0 2.0 0.00 0.04 0.00 62 1008.8
20260508014536 45 348 0.0 1.0 0.00 0.04 0.00 56 1008.5
20260508013029 46 348 0.0 3.0 0.00 0.04 0.00 54 1008.6
20260508011529 47 273 0.0 7.0 0.00 0.04 0.00 49 1008.5
20260508010044 47 177 0.0 2.0 0.00 0.07 0.00 49 1008.3
20260508004531 47 306 0.0 4.0 0.00 0.07 0.00 47 1008.2
20260508003028 48 215 0.0 3.0 0.00 0.07 0.00 46 1008.0
20260508001529 49 236 0.0 3.0 0.00 0.07 0.00 45 1007.9
20260508000026 50 298 0.0 4.0 0.00 0.11 0.00 45 1007.8
20260507234527 50 223 0.0 4.0 0.00 0.11 0.00 43 1007.7
20260507233028 51 192 0.0 7.0 0.00 0.11 0.00 41 1007.4
20260507231525 52 142 2.0 12.0 0.00 0.11 0.00 39 1007.4
20260507230032 53 181 2.0 10.0 0.00 0.12 0.00 39 1007.3
20260507224524 53 238 3.0 12.0 0.00 0.12 0.00 40 1007.3
20260507223024 54 283 0.0 7.0 0.00 0.12 0.00 38 1007.2
20260507221524 55 207 2.0 10.0 0.00 0.12 0.00 37 1007.1
20260507220025 55 171 1.0 11.0 0.00 0.12 0.00 38 1007.0